[[{"header":{"parameterUnit":"m.s-1","parameterCategory":1,"la1":30.2991,"la2":30.254,"lo1":-89.0895,"lo2":-89.0444,"dy":0.0017,"dx":0.0017,"nx":28,"ny":28,"refTime":"2025-05-21T21:00:00:Z","depth":0,"parameterNumber":2,"parameterNumberName":"U-component_of_WINDS"},"data":[0,0,0,0,0,0,0,0,0,0,0,0,0,0,0,0,0,0,0,0,0,0,0,0,0,0,0,0,0,0,0,0,0,0,0,0,0,0,0,0,0,0,0,0,0,0,0,0,0,0,0,0,0,0,0,0,0,0,-3.0989,-3.0989,0,-3.0969,-3.0969,-3.0969,-3.0908,-3.0907,-3.0905,-3.0904,-3.0885,-3.0886,-3.0887,0,0,0,0,0,0,0,0,0,0,0,0,0,-3.0977,-3.0977,-3.0989,-3.0989,-3.0989,-3.0969,-3.0969,-3.0969,-3.0908,-3.0907,-3.0905,-3.0904,-3.0885,-3.0886,-3.0887,0,0,0,0,0,0,0,0,0,0,0,0,0,-3.0972,-3.0977,-3.0989,-3.0956,-3.0953,-3.0969,-3.0969,-3.0969,-3.0909,-3.0907,-3.0905,-3.0903,-3.0885,-3.0886,-3.0887,-3.0934,0,0,-3.089,-3.0891,0,0,0,0,0,0,0,0,-3.0972,-3.0973,-3.0961,-3.0958,-3.0955,-3.0939,-3.0958,-3.0957,-3.0909,-3.0926,-3.0904,-3.0902,-3.0905,-3.0904,-3.0905,-3.0933,-3.0932,-3.089,-3.0891,-3.0892,-3.0892,0,0,0,0,0,0,0,-3.0973,-3.0973,-3.0981,-3.0961,-3.0957,-3.0943,-3.094,-3.0957,-3.0927,-3.0924,-3.0919,-3.0918,-3.0903,-3.0904,-3.0904,-3.0932,-3.089,-3.0891,-3.0892,-3.0892,-3.1,-3.1002,0,0,0,0,0,0,-3.0978,-3.0974,-3.0982,-3.0981,-3.0959,-3.0945,-3.0942,-3.0946,-3.0926,-3.0921,-3.092,-3.0915,-3.0903,-3.0903,-3.0903,-3.0957,-3.0892,-3.0893,-3.0893,-3.0998,-3.1,-3.1003,0,0,0,0,0,0,-3.0978,-3.0979,-3.0983,-3.0976,-3.0975,-3.0947,-3.0953,-3.0947,-3.0948,-3.0923,-3.0918,-3.0926,-3.0901,-3.0902,-3.0927,-3.0956,-3.0893,-3.0894,-3.0995,-3.0999,-3.1002,-3.1067,0,0,0,0,0,0,-3.0978,-3.0979,-3.0996,-3.0977,-3.0976,-3.1006,-3.0955,-3.0948,-3.095,-3.0944,-3.0928,-3.0923,-3.09,-3.0926,-3.0928,-3.0956,-3.0895,-3.0992,-3.0997,-3.1,-3.1062,-3.1072,-3.108,0,0,0,0,0,-3.0977,-3.1015,-3.0997,-3.0999,-3.0997,-3.1008,-3.1008,-3.0979,-3.0953,-3.097,-3.0954,-3.0924,-3.0953,-3.0929,-3.0931,-3.096,-3.099,-3.0995,-3.1,-3.1058,-3.107,-3.108,0,0,0,0,0,0,-3.1039,-3.1012,-3.0992,-3.1025,-3.1019,-3.0998,-3.1018,-3.0993,-3.0995,-3.099,-3.0955,-3.0952,-3.0983,-3.0974,-3.0948,-3.1006,-3.0967,-3.0972,-3.101,-3.1021,-3.103,-3.1031,-3.0896,0,0,0,0,0,-3.1056,-3.1067,-3.1044,-3.1075,-3.1073,-3.1047,-3.1051,-3.103,-3.1023,-3.102,-3.1006,-3.1001,-3.1009,-3.1015,-3.1021,-3.1061,-3.1057,-3.1082,-3.1092,-3.1099,-3.1104,-3.1126,-3.1137,-3.1019,-3.1019,-3.1019,0,0,-3.1092,-3.1079,-3.1088,-3.1087,-3.108,-3.1093,-3.1045,-3.106,-3.107,-3.1022,-3.1045,-3.1036,-3.1028,-3.1061,-3.1075,-3.1055,-3.1136,-3.1106,-3.1112,-3.1112,-3.1132,-3.1143,-3.1153,-3.1022,-3.1021,-3.1021,0,0,-3.1164,-3.1155,-3.1181,-3.1175,-3.1166,-3.1148,-3.1154,-3.1137,-3.1129,-3.1152,-3.1116,-3.1128,-3.1142,-3.1138,-3.1138,-3.1211,-3.1184,-3.1214,-3.1262,-3.1284,-3.1293,-3.1301,-3.1327,-3.1337,-3.122,-3.122,-3.122,0,-3.121,-3.1227,-3.1197,-3.1215,-3.1216,-3.1174,-3.12,-3.1197,-3.119,-3.1192,-3.117,-3.1187,-3.1179,-3.1211,-3.1229,-3.1231,-3.1237,-3.1215,-3.1294,-3.1302,-3.1309,-3.1333,-3.1343,-3.1223,-3.1223,-3.1223,-3.1222,0,-3.1284,-3.1297,-3.1319,-3.1313,-3.1317,-3.1339,-3.1313,-3.1321,-3.13,-3.1286,-3.131,-3.1299,-3.1302,-3.1309,-3.1289,-3.1339,-3.1327,-3.13,-3.126,-3.1324,-3.1347,-3.1356,-3.1229,-3.1227,-3.1226,-3.1225,0,0,-3.1392,-3.1371,-3.1379,-3.1377,-3.1364,-3.1374,-3.1395,-3.1398,-3.1406,-3.1403,-3.142,-3.1434,-3.141,-3.141,-3.1389,-3.1408,-3.1468,-3.1379,-3.1379,-3.1396,-3.1523,-3.1542,-3.1554,-3.145,-3.1452,-3.1453,-3.1523,0,-3.146,-3.1493,-3.1468,-3.1506,-3.1518,-3.148,-3.1498,-3.1493,-3.1481,-3.149,-3.1476,-3.1487,-3.1454,-3.1453,-3.1471,-3.1457,-3.1492,-3.1451,-3.1466,-3.1467,-3.1468,-3.1565,-3.1586,-3.1652,-3.1532,-3.1533,-3.1534,0,-3.1543,-3.1544,-3.1584,-3.157,-3.1574,-3.1591,-3.1592,-3.1602,-3.1596,-3.1585,-3.1587,-3.1562,-3.1582,-3.1544,-3.1573,-3.1545,-3.155,-3.1545,-3.1547,-3.1546,-3.1503,-3.1567,-3.1673,-3.1683,-3.1548,-3.1547,-3.1546,0,-3.1618,-3.163,-3.1655,-3.1654,-3.1638,-3.1651,-3.1646,-3.1638,-3.1642,-3.1644,-3.1646,-3.1651,-3.1653,-3.1658,-3.1636,-3.161,-3.1667,-3.1627,-3.1659,-3.166,-3.1672,-3.1671,-3.178,-3.1677,-3.1677,-3.1676,-3.1676,0,-3.1695,-3.1721,-3.1688,-3.1704,-3.1732,-3.1703,-3.1732,-3.1723,-3.1717,-3.173,-3.1698,-3.1712,-3.1682,-3.1693,-3.1676,-3.1702,-3.1703,-3.1696,-3.1691,-3.1698,-3.1699,-3.17,-3.1695,-3.1679,-3.1678,-3.1678,-3.1677,0,-3.1783,-3.1762,-3.1787,-3.1771,-3.1767,-3.1789,-3.1775,-3.1789,-3.1776,-3.1794,-3.1796,-3.1774,-3.1786,-3.1764,-3.1773,-3.1762,-3.1799,-3.1787,-3.1801,-3.1797,-3.183,-3.1827,-3.1942,-3.1956,-3.1845,-3.1846,-3.1847,0,-3.1833,-3.1852,-3.1838,-3.1845,-3.1841,-3.1853,-3.1857,-3.183,-3.1836,-3.1832,-3.1847,-3.1856,-3.1861,-3.1882,-3.1867,-3.1874,-3.1862,-3.1902,-3.1863,-3.187,-3.1862,-3.1861,-3.1863,-3.191,-3.1911,-3.1912,-3.1913,0,-3.1925,-3.1914,-3.1921,-3.1925,-3.1931,-3.1933,-3.1933,-3.194,-3.1912,-3.1921,-3.1932,-3.1937,-3.1946,-3.1956,-3.1959,-3.1954,-3.193,-3.1926,-3.1934,-3.1941,-3.1948,-3.1944,-3.1822,-3.1923,-3.1922,-3.1921,-3.1921,-3.192,-3.1995,-3.2011,-3.2004,-3.2013,-3.201,-3.2011,-3.2024,-3.2012,-3.2021,-3.2026,-3.201,-3.2026,-3.2021,-3.2023,-3.2021,-3.2034,-3.2016,-3.2027,-3.203,-3.2033,-3.2038,-3.1947,-3.2034,-3.2034,-3.2034,-3.2033,-3.2033,0,-3.2086,-3.208,-3.2088,-3.2089,-3.2097,-3.2073,-3.2072,-3.208,-3.2094,-3.2092,-3.2098,-3.2112,-3.2122,-3.2109,-3.2116,-3.2129,-3.2117,-3.2131,-3.213,-3.2129,-3.2054,-3.2046,-3.214,-3.214,-3.214,-3.214,-3.214,-3.214,-3.2133,-3.2158,-3.2147,-3.2171,-3.2165,-3.2179,-3.2181,-3.2182,-3.218,-3.2197,-3.2204,-3.2196,-3.219,-3.2197,-3.2205,-3.2201,-3.2205,-3.2223,-3.2215,-3.2145,-3.2134,-3.2124,-3.2117,-3.2224,-3.2224,-3.2289,-3.229,-3.2291]},{"header":{"parameterUnit":"m.s-1","parameterCategory":1,"la1":30.2991,"la2":30.254,"lo1":-89.0895,"lo2":-89.0444,"dy":0.0017,"dx":0.0017,"nx":28,"ny":28,"refTime":"2025-05-21T21:00:00:Z","depth":0,"parameterNumber":3,"parameterNumberName":"V-component_of_WINDS"},"data":[0,0,0,0,0,0,0,0,0,0,0,0,0,0,0,0,0,0,0,0,0,0,0,0,0,0,0,0,0,0,0,0,0,0,0,0,0,0,0,0,0,0,0,0,0,0,0,0,0,0,0,0,0,0,0,0,0,0,3.5902,3.5903,0,3.599,3.5991,3.5992,3.6059,3.6059,3.606,3.6061,3.6148,3.6149,3.6151,0,0,0,0,0,0,0,0,0,0,0,0,0,3.579,3.5792,3.5902,3.5903,3.5904,3.599,3.5991,3.5992,3.6059,3.6059,3.606,3.6061,3.6147,3.6149,3.6151,0,0,0,0,0,0,0,0,0,0,0,0,0,3.5854,3.5793,3.5902,3.5948,3.5953,3.599,3.5991,3.5992,3.6059,3.6059,3.606,3.6061,3.6146,3.6149,3.6151,3.6149,0,0,3.6159,3.616,0,0,0,0,0,0,0,0,3.5851,3.5858,3.594,3.5945,3.595,3.6014,3.5984,3.6045,3.6058,3.6018,3.6061,3.6062,3.6102,3.6109,3.6123,3.6153,3.6156,3.6159,3.6161,3.6162,3.6163,0,0,0,0,0,0,0,3.5846,3.5855,3.5937,3.5941,3.5947,3.5964,3.5974,3.5995,3.6054,3.6022,3.6027,3.6037,3.6105,3.612,3.6125,3.6158,3.6159,3.6162,3.6163,3.6164,3.6192,3.6191,0,0,0,0,0,0,3.5835,3.5851,3.5934,3.5939,3.5902,3.5965,3.5976,3.5993,3.6054,3.6064,3.6036,3.6039,3.6115,3.6122,3.6129,3.6131,3.6162,3.6165,3.6166,3.6193,3.6192,3.6191,0,0,0,0,0,0,3.5832,3.5842,3.593,3.5897,3.5909,3.5966,3.5984,3.5994,3.6009,3.6064,3.6075,3.604,3.6116,3.6125,3.6144,3.6135,3.6166,3.6168,3.6194,3.6192,3.6191,3.6134,0,0,0,0,0,0,3.5829,3.584,3.584,3.5896,3.5911,3.5944,3.5983,3.5995,3.6014,3.6019,3.6071,3.6081,3.6118,3.614,3.6146,3.6139,3.617,3.6195,3.6193,3.6192,3.6137,3.6131,3.6126,0,0,0,0,0,3.5824,3.5819,3.5839,3.5849,3.5911,3.5943,3.5952,3.5995,3.6013,3.6013,3.6049,3.6079,3.6135,3.6141,3.6149,3.6142,3.6196,3.6194,3.6192,3.6139,3.6132,3.6126,0,0,0,0,0,0,3.5758,3.5827,3.585,3.5863,3.5897,3.5955,3.5956,3.5986,3.6014,3.6018,3.607,3.6081,3.6095,3.6121,3.6126,3.6144,3.6169,3.6169,3.6127,3.612,3.6115,3.6108,3.6172,0,0,0,0,0,3.5745,3.5766,3.5825,3.5831,3.5847,3.5898,3.5914,3.5945,3.5981,3.5996,3.6033,3.6067,3.6092,3.6108,3.6134,3.6141,3.6154,3.6141,3.6135,3.6131,3.6129,3.6137,3.6132,3.6185,3.6185,3.6185,0,0,3.5718,3.5759,3.5768,3.5818,3.5848,3.5869,3.591,3.5929,3.5945,3.5998,3.6019,3.6048,3.6089,3.6103,3.611,3.6124,3.6118,3.6128,3.6124,3.6126,3.6135,3.613,3.6125,3.6184,3.6184,3.6184,0,0,3.568,3.5712,3.5721,3.5751,3.5797,3.5832,3.5834,3.5888,3.5909,3.5931,3.5973,3.5992,3.6034,3.6063,3.6082,3.6058,3.6087,3.6065,3.6036,3.6042,3.6038,3.6035,3.6027,3.6023,3.6064,3.6064,3.6064,0,3.564,3.5673,3.5722,3.574,3.5761,3.5813,3.5822,3.5849,3.59,3.5913,3.5929,3.5985,3.6016,3.6038,3.6032,3.6046,3.6051,3.6059,3.6035,3.6032,3.603,3.6023,3.602,3.6061,3.6061,3.6061,3.6062,0,3.5623,3.5645,3.5647,3.5697,3.5719,3.5732,3.5783,3.5799,3.5829,3.5862,3.5884,3.5924,3.5961,3.5968,3.5996,3.5995,3.6002,3.6025,3.6052,3.6021,3.6015,3.6013,3.6056,3.6057,3.6058,3.6059,0,0,3.5543,3.5622,3.5622,3.5647,3.5702,3.572,3.5736,3.5774,3.5787,3.5821,3.5836,3.5872,3.5895,3.5918,3.595,3.5956,3.5936,3.5979,3.5981,3.597,3.5937,3.5919,3.5915,3.5956,3.5956,3.5955,3.5934,0,3.5513,3.5547,3.5592,3.561,3.5632,3.5683,3.5698,3.5733,3.5765,3.5788,3.5823,3.5849,3.5876,3.5891,3.5899,3.5936,3.593,3.5938,3.5971,3.5971,3.5958,3.5912,3.5893,3.5871,3.5932,3.5932,3.5932,0,3.5483,3.5517,3.5537,3.5593,3.5604,3.5616,3.5655,3.5677,3.5718,3.5742,3.5768,3.5804,3.5824,3.5848,3.5877,3.5882,3.5899,3.5919,3.5919,3.5924,3.5949,3.5916,3.5865,3.5862,3.5928,3.5929,3.5929,0,3.5424,3.5474,3.5494,3.5513,3.5578,3.5586,3.5613,3.5656,3.5676,3.571,3.5724,3.5759,3.5778,3.5804,3.5849,3.5862,3.5874,3.5901,3.5893,3.5892,3.5893,3.5892,3.5844,3.5903,3.5903,3.5903,3.5903,0,3.5386,3.5396,3.5468,3.548,3.5494,3.5546,3.5559,3.5591,3.5629,3.5648,3.5694,3.5711,3.5768,3.5792,3.5827,3.5846,3.5854,3.5874,3.5883,3.587,3.5867,3.588,3.5883,3.5902,3.5902,3.5902,3.5903,0,3.5321,3.537,3.5395,3.5456,3.5471,3.5479,3.5531,3.5545,3.5581,3.5604,3.5613,3.5668,3.5699,3.5746,3.579,3.5814,3.5828,3.5843,3.5814,3.5819,3.5809,3.581,3.5768,3.5766,3.5825,3.5825,3.5824,0,3.5294,3.5304,3.5367,3.5384,3.541,3.5436,3.5458,3.551,3.5531,3.5581,3.5588,3.5623,3.5653,3.57,3.5744,3.5778,3.5795,3.5778,3.58,3.5787,3.5795,3.5794,3.5796,3.5772,3.5771,3.5771,3.577,0,3.5241,3.5265,3.5295,3.5333,3.5358,3.5391,3.5426,3.5437,3.5497,3.5518,3.555,3.5574,3.5621,3.5654,3.5696,3.5724,3.5757,3.5763,3.5763,3.575,3.5733,3.5743,3.58,3.5764,3.5764,3.5765,3.5765,3.5765,3.5195,3.5206,3.5253,3.5286,3.5318,3.535,3.5366,3.5405,3.5434,3.5477,3.5506,3.5537,3.5581,3.564,3.5667,3.5692,3.5706,3.5706,3.5706,3.5705,3.5701,3.5729,3.5699,3.57,3.57,3.57,3.57,0,3.5144,3.5178,3.5207,3.5255,3.5281,3.5312,3.5353,3.5372,3.5399,3.5438,3.5468,3.5506,3.554,3.5588,3.5625,3.5636,3.5652,3.5644,3.5644,3.565,3.5686,3.5682,3.563,3.563,3.563,3.5631,3.5631,3.5631,3.5121,3.5143,3.5173,3.5213,3.5246,3.5278,3.5299,3.5329,3.536,3.5402,3.5431,3.5462,3.5505,3.5546,3.5579,3.5592,3.5604,3.5591,3.5609,3.5641,3.5647,3.5653,3.565,3.5593,3.5593,3.5571,3.5571,3.5571]}]]